When you browse on this site, cookies collect data to enhance your experience and personalize the content and advertising you see.
Visit our Privacy Policy to learn more. By continuing to use the site, you agree to this use of cookies and data.
  • In Czech Republic
  • List of Countries
  • For 7 days
  • Water Temperature
  • Weather Map
  • Weather Widgets
  • user-avatar
    Login

    Hourly Weather Río Gallegos

    Today, 28 February, Friday

    Time Temperature Precipitation Wind Pressure Humidity
    00:00 +9°C° 0 mm 11 mps 756 mmHg 60%
    01:00 +8°C° 0 mm 10 mps 756 mmHg 62%
    02:00 +8°C° 0 mm 10 mps 756 mmHg 62%
    03:00 +8°C° 0 mm 10 mps 757 mmHg 62%
    04:00 +8°C° 0 mm 10 mps 757 mmHg 62%
    05:00 +9°C° 0 mm 10 mps 757 mmHg 60%
    06:00 +9°C° 0 mm 10 mps 757 mmHg 59%
    07:00 +11°C° 0 mm 10 mps 757 mmHg 57%
    08:00 +12°C° 0 mm 10 mps 758 mmHg 54%
    09:00 +12°C° 0 mm 9 mps 758 mmHg 50%
    10:00 +13°C° 0 mm 9 mps 758 mmHg 47%
    11:00 +15°C° 0 mm 9 mps 758 mmHg 46%
    12:00 +15°C° 0 mm 8 mps 758 mmHg 45%
    13:00 +16°C° 0 mm 8 mps 757 mmHg 44%
    14:00 +16°C° 0 mm 8 mps 757 mmHg 45%
    15:00 +17°C° 0 mm 7 mps 757 mmHg 45%
    16:00 +17°C° 0 mm 7 mps 757 mmHg 46%
    17:00 +16°C° 0 mm 7 mps 757 mmHg 48%
    18:00 +16°C° 0 mm 6 mps 758 mmHg 51%
    19:00 +15°C° 0 mm 6 mps 758 mmHg 54%
    20:00 +15°C° 0 mm 5 mps 758 mmHg 55%
    21:00 +15°C° 0 mm 5 mps 758 mmHg 57%
    22:00 +14°C° 0 mm 5 mps 758 mmHg 58%
    23:00 +14°C° 0 mm 5 mps 757 mmHg 56%

    Tomorrow, 29 February, Saturday

    Time Temperature Precipitation Wind Pressure Humidity
    00:00 +15°C° 0 mm 6 mps 757 mmHg 54%
    01:00 +15°C° 0 mm 6 mps 757 mmHg 51%
    02:00 +15°C° 0 mm 6 mps 756 mmHg 52%
    03:00 +15°C° 0 mm 6 mps 756 mmHg 52%
    04:00 +15°C° 0 mm 7 mps 755 mmHg 53%
    05:00 +16°C° 0 mm 7 mps 755 mmHg 53%
    06:00 +17°C° 0 mm 7 mps 755 mmHg 53%
    07:00 +17°C° 0 mm 8 mps 755 mmHg 53%
    08:00 +19°C° 0 mm 9 mps 755 mmHg 49%
    09:00 +22°C° 0 mm 10 mps 755 mmHg 45%
    10:00 +23°C° 0 mm 12 mps 755 mmHg 41%
    11:00 +24°C° 0 mm 12 mps 755 mmHg 39%
    12:00 +24°C° 0 mm 13 mps 754 mmHg 37%
    13:00 +26°C° 0 mm 13 mps 754 mmHg 35%
    14:00 +26°C° 0 mm 12 mps 754 mmHg 35%
    15:00 +26°C° 0 mm 10 mps 754 mmHg 34%
    16:00 +26°C° 0 mm 9 mps 753 mmHg 34%
    17:00 +23°C° 0 mm 7 mps 753 mmHg 37%
    18:00 +22°C° 0 mm 5 mps 753 mmHg 40%
    19:00 +21°C° 0 mm 3 mps 752 mmHg 43%
    20:00 +20°C° 0 mm 3 mps 752 mmHg 46%
    21:00 +19°C° 0 mm 3 mps 752 mmHg 50%
    22:00 +18°C° 0 mm 3 mps 752 mmHg 53%
    23:00 +18°C° 0 mm 3 mps 752 mmHg 54%

    Day after tomorrow, 1 March, Sunday

    Time Temperature Precipitation Wind Pressure Humidity
    00:00 +18°C° 0 mm 2 mps 752 mmHg 55%
    01:00 +17°C° 0 mm 2 mps 752 mmHg 56%
    02:00 +17°C° 0 mm 3 mps 753 mmHg 56%
    03:00 +17°C° 0 mm 3 mps 753 mmHg 56%
    04:00 +17°C° 0 mm 3 mps 753 mmHg 56%
    05:00 +17°C° 0 mm 4 mps 754 mmHg 56%
    06:00 +17°C° 0 mm 5 mps 754 mmHg 56%
    07:00 +17°C° 0 mm 6 mps 754 mmHg 56%
    08:00 +19°C° 0 mm 6 mps 754 mmHg 54%
    09:00 +19°C° 0 mm 5 mps 755 mmHg 52%
    10:00 +20°C° 0 mm 4 mps 755 mmHg 50%
    11:00 +20°C° 0 mm 4 mps 755 mmHg 50%
    12:00 +20°C° 0 mm 4 mps 755 mmHg 49%
    13:00 +20°C° 0 mm 4 mps 755 mmHg 49%
    14:00 +20°C° 0 mm 4 mps 754 mmHg 50%
    15:00 +19°C° 0 mm 4 mps 754 mmHg 51%
    16:00 +19°C° 0 mm 3 mps 754 mmHg 52%
    17:00 +18°C° 0 mm 3 mps 754 mmHg 54%
    18:00 +18°C° 0 mm 3 mps 755 mmHg 56%
    19:00 +17°C° 0 mm 2 mps 755 mmHg 58%
    20:00 +17°C° 0 mm 2 mps 755 mmHg 60%
    21:00 +16°C° 0 mm 2 mps 755 mmHg 63%
    22:00 +16°C° 0 mm 2 mps 755 mmHg 65%
    23:00 +14°C° 0 mm 3 mps 755 mmHg 65%

    2 March, Monday

    Time Temperature Precipitation Wind Pressure Humidity
    00:00 +14°C° 0 mm 4 mps 755 mmHg 65%
    01:00 +14°C° 0 mm 4 mps 755 mmHg 66%
    02:00 +13°C° 0 mm 4 mps 756 mmHg 65%
    03:00 +13°C° 0 mm 3 mps 756 mmHg 65%
    04:00 +14°C° 0 mm 2 mps 757 mmHg 65%
    05:00 +14°C° 0 mm 2 mps 757 mmHg 62%
    06:00 +14°C° 0 mm 2 mps 757 mmHg 60%
    07:00 +14°C° 0 mm 2 mps 757 mmHg 57%
    08:00 +15°C° 0 mm 2 mps 757 mmHg 56%
    09:00 +14°C° 0 mm 3 mps 757 mmHg 55%
    10:00 +16°C° 0 mm 3 mps 757 mmHg 53%
    11:00 +15°C° 0 mm 4 mps 756 mmHg 55%
    12:00 +16°C° 0 mm 6 mps 756 mmHg 57%
    13:00 +16°C° 0 mm 8 mps 755 mmHg 59%
    14:00 +15°C° 0.1 mm 8 mps 755 mmHg 61%
    15:00 +15°C° 0.1 mm 9 mps 754 mmHg 64%
    16:00 +13°C° 0.1 mm 9 mps 753 mmHg 66%
    17:00 +12°C° 0.1 mm 9 mps 753 mmHg 67%
    18:00 +12°C° 0.1 mm 9 mps 753 mmHg 68%
    19:00 +11°C° 0.1 mm 9 mps 753 mmHg 69%
    20:00 +11°C° 0.1 mm 6 mps 753 mmHg 72%
    21:00 +12°C° 0.1 mm 4 mps 752 mmHg 74%
    22:00 +13°C° 0.1 mm 1 mps 752 mmHg 77%
    23:00 +13°C° 0 mm 3 mps 752 mmHg 73%

    3 March, Tuesday

    Time Temperature Precipitation Wind Pressure Humidity
    00:00 +13°C° 0 mm 4 mps 752 mmHg 70%
    01:00 +14°C° 0 mm 6 mps 753 mmHg 67%
    02:00 +12°C° 0 mm 7 mps 753 mmHg 67%
    03:00 +12°C° 0 mm 9 mps 754 mmHg 67%
    04:00 +11°C° 0 mm 10 mps 755 mmHg 67%
    05:00 +11°C° 0 mm 11 mps 755 mmHg 63%
    06:00 +9°C° 0 mm 11 mps 756 mmHg 60%
    07:00 +9°C° 0 mm 12 mps 756 mmHg 56%
    08:00 +11°C° 0 mm 11 mps 757 mmHg 51%
    09:00 +12°C° 0 mm 11 mps 757 mmHg 46%
    10:00 +13°C° 0 mm 10 mps 758 mmHg 41%
    11:00 +14°C° 0 mm 10 mps 758 mmHg 40%
    12:00 +16°C° 0 mm 9 mps 758 mmHg 39%
    13:00 +17°C° 0 mm 9 mps 758 mmHg 37%
    14:00 +18°C° 0 mm 7 mps 758 mmHg 39%
    15:00 +19°C° 0 mm 6 mps 758 mmHg 40%
    16:00 +19°C° 0 mm 5 mps 758 mmHg 42%
    17:00 +16°C° 0 mm 6 mps 758 mmHg 48%
    18:00 +14°C° 0 mm 6 mps 759 mmHg 55%
    19:00 +11°C° 0 mm 7 mps 759 mmHg 61%
    20:00 +11°C° 0 mm 7 mps 759 mmHg 63%
    21:00 +11°C° 0 mm 8 mps 759 mmHg 64%
    22:00 +10°C° 0 mm 8 mps 759 mmHg 66%
    23:00 +10°C° 0 mm 9 mps 759 mmHg 66%

    4 March, Wednesday

    Time Temperature Precipitation Wind Pressure Humidity
    00:00 +10°C° 0 mm 9 mps 759 mmHg 66%
    01:00 +10°C° 0 mm 9 mps 758 mmHg 67%
    02:00 +11°C° 0 mm 10 mps 758 mmHg 67%
    03:00 +11°C° 0 mm 10 mps 757 mmHg 68%
    04:00 +11°C° 0 mm 10 mps 757 mmHg 69%
    05:00 +11°C° 0 mm 11 mps 756 mmHg 68%
    06:00 +12°C° 0 mm 11 mps 756 mmHg 68%
    07:00 +12°C° 0 mm 11 mps 755 mmHg 67%
    08:00 +14°C° 0 mm 10 mps 755 mmHg 62%
    09:00 +16°C° 0 mm 9 mps 754 mmHg 58%
    10:00 +18°C° 0 mm 8 mps 754 mmHg 53%
    11:00 +21°C° 0 mm 7 mps 754 mmHg 49%
    12:00 +22°C° 0 mm 6 mps 753 mmHg 44%
    13:00 +23°C° 0 mm 4 mps 753 mmHg 39%
    14:00 +25°C° 0 mm 4 mps 753 mmHg 38%
    15:00 +25°C° 0 mm 3 mps 753 mmHg 38%
    16:00 +25°C° 0 mm 2 mps 753 mmHg 37%
    17:00 +24°C° 0 mm 3 mps 754 mmHg 41%
    18:00 +22°C° 0 mm 3 mps 754 mmHg 44%
    19:00 +20°C° 0 mm 3 mps 754 mmHg 48%
    20:00 +20°C° 0 mm 3 mps 754 mmHg 50%
    21:00 +19°C° 0 mm 3 mps 754 mmHg 52%
    22:00 +18°C° 0 mm 3 mps 754 mmHg 53%
    23:00 +18°C° 0 mm 3 mps 754 mmHg 54%
    Show more